Kahului, HI

11:50 PM HST on November 24, 2017 (GMT -1000)
Kahului

Weather History for PHOG - December, 2012

Change the Weather History Date:

Wednesday, December 19, 2012

  Actual Average Record
Temperature  
Mean Temperature 72 °F 73 °F  
Max Temperature 80 °F 81 °F 87 °F (1980)
Min Temperature 63 °F 65 °F 54 °F (1950)
Degree Days  
Heating Degree Days 0 0  
Month to date heating degree days 0 0  
Since 1 July heating degree days 0 0  
Cooling Degree Days 7 8  
Month to date cooling degree days 190 167  
Year to date cooling degree days 3833 3874  
Growing Degree Days 20 (Base 50)    
Moisture  
Dew Point 65 °F    
Average Humidity 76    
Maximum Humidity 84    
Minimum Humidity 67    
Precipitation  
Precipitation 0.01 in 0.12 in 0.68 in (1964)
Month to date precipitation 0.18 2.05  
Year to date precipitation 5.12 16.53  
Snow  
Snow 0.00 in - - ()
Month to date snowfall 0.0  
Since 1 July snowfall 0.0  
Snow Depth 0.00 in    
Sea Level Pressure  
Sea Level Pressure 30.04 in    
Wind  
Wind Speed 15 mph (ENE)    
Max Wind Speed 26 mph    
Max Gust Speed 39 mph    
Visibility 10 miles    
Events Rain    
T = Trace of Precipitation, MM = Missing Value Source: NWS Daily Summary

Daily Weather History Graph

Daily Weather History Graph

Search for Another Location

Airport or City:

Trip Planner

Search our weather history database for the weather conditions in past years. The results will help you decide how hot, cold, wet, or windy it might be!

Date:

Astronomy

Dec. 19, 2012 Rise Set
Actual Time 6:57 AM HST 5:49 PM HST
Civil Twilight 6:33 AM HST 6:13 PM HST
Nautical Twilight 6:05 AM HST 6:41 PM HST
Astronomical Twilight 5:38 AM HST 7:08 PM HST
Moon 12:01 PM HST (12/19) No Moon Set
Length of Visible Light 11h 40m
Length of Day
10h 51m
Waxing Crescent, 47% of the Moon is Illuminated
Dec 19
Waxing Crescent
Dec 19
First Quarter
Dec 28
Full
Jan 4
Last Quarter
Jan 11
New

Hourly Weather History & Observations

Time (HST) Temp. Dew Point Humidity Pressure Visibility Wind Dir Wind Speed Gust Speed Precip Events Conditions
12:54 AM 72.0 °F 63.0 °F 73% 30.05 in 10.0 mi East 15.0 mph 26.5 mph N/A   Clear
1:54 AM 68.0 °F 60.1 °F 76% 30.04 in 10.0 mi East 8.1 mph 20.7 mph N/A   Clear
2:54 AM 66.9 °F 60.1 °F 79% 30.04 in 10.0 mi Variable 3.5 mph - N/A   Clear
3:54 AM 68.0 °F 61.0 °F 78% 30.02 in 10.0 mi NE 12.7 mph - N/A   Clear
4:54 AM 69.1 °F 62.1 °F 78% 30.01 in 10.0 mi ENE 3.5 mph - N/A   Clear
5:54 AM 70.0 °F 64.0 °F 81% 30.02 in 10.0 mi ENE 13.8 mph 19.6 mph N/A   Clear
6:54 AM 71.1 °F 64.0 °F 78% 30.03 in 10.0 mi NE 19.6 mph 28.8 mph N/A   Clear
7:54 AM 72.0 °F 64.9 °F 78% 30.05 in 10.0 mi NE 19.6 mph 28.8 mph N/A   Clear
8:54 AM 75.0 °F 66.0 °F 73% 30.08 in 10.0 mi NE 19.6 mph 28.8 mph 0.01 in   Partly Cloudy
9:54 AM 75.9 °F 66.0 °F 71% 30.07 in 10.0 mi ENE 19.6 mph 29.9 mph N/A   Scattered Clouds
10:54 AM 78.1 °F 66.0 °F 66% 30.06 in 10.0 mi ENE 17.3 mph 31.1 mph N/A   Scattered Clouds
11:54 AM 77.0 °F 66.0 °F 69% 30.04 in 10.0 mi ENE 24.2 mph 34.5 mph N/A   Scattered Clouds
12:54 PM 79.0 °F 66.9 °F 66% 30.01 in 10.0 mi ENE 16.1 mph 31.1 mph N/A   Scattered Clouds
1:54 PM 77.0 °F 66.0 °F 69% 29.99 in 10.0 mi ENE 19.6 mph 32.2 mph 0.00 in   Scattered Clouds
2:54 PM 73.0 °F 66.0 °F 79% 29.99 in 10.0 mi ENE 16.1 mph 31.1 mph 0.00 in   Scattered Clouds
3:54 PM 75.9 °F 66.9 °F 74% 29.99 in 10.0 mi NE 16.1 mph 27.6 mph 0.00 in   Scattered Clouds
4:54 PM 73.9 °F 66.9 °F 79% 30.01 in 10.0 mi ENE 12.7 mph 21.9 mph 0.00 in   Scattered Clouds
5:54 PM 73.0 °F 66.0 °F 79% 30.02 in 10.0 mi ENE 11.5 mph 21.9 mph 0.00 in   Scattered Clouds
6:54 PM 72.0 °F 64.9 °F 78% 30.03 in 10.0 mi ENE 16.1 mph 26.5 mph 0.00 in   Scattered Clouds
7:54 PM 72.0 °F 66.0 °F 81% 30.04 in 10.0 mi ENE 16.1 mph 26.5 mph 0.00 in   Scattered Clouds
8:54 PM 72.0 °F 64.9 °F 78% 30.07 in 10.0 mi ENE 19.6 mph 29.9 mph N/A   Clear
9:54 PM 72.0 °F 66.0 °F 81% 30.08 in 10.0 mi ENE 17.3 mph 27.6 mph 0.00 in Rain Light Rain
10:54 PM 72.0 °F 64.9 °F 78% 30.08 in 10.0 mi ENE 15.0 mph 24.2 mph 0.00 in   Partly Cloudy
11:54 PM 72.0 °F 64.9 °F 78% 30.08 in 10.0 mi NE 11.5 mph - 0.00 in Rain Light Rain